Wind_Speed
32 32 33 33 34 34 35 34 34 33 33 31 30 29 28 27 26 25 25 25 25 26 26 26 27 28 30 32 33 35 36 37 38 39 39 40 40 40 40 40 40 40 38
32 33 33 34 35 35 35 35 35 34 32 31 30 29 28 27 26 26 25 25 25 26 26 27 28 29 30 31 32 34 35 36 37 38 39 39 39 39 39 38 38 39 39
32 34 34 35 35 35 35 35 35 34 32 32 31 30 28 28 27 26 26 26 26 26 27 28 29 30 31 32 33 34 36 36 36 37 38 38 37 37 38 38 37 38 38
32 33 34 34 34 34 35 35 35 34 33 33 32 30 29 29 29 28 28 28 28 28 28 28 29 30 31 32 33 35 35 37 37 38 38 38 38 37 36 37 37 38 38
30 31 31 32 33 34 35 35 35 35 35 35 34 33 32 32 31 31 31 30 30 29 29 29 30 30 31 32 33 35 36 37 38 39 39 38 38 37 37 36 36 37 37
28 29 30 32 33 35 35 36 36 37 37 37 36 36 35 34 33 33 32 32 32 31 31 31 32 32 32 33 34 35 36 37 38 39 39 39 38 38 37 36 36 36 36
26 29 30 32 33 35 36 37 38 38 38 38 38 37 37 36 36 35 35 34 33 33 33 33 33 33 34 34 34 36 36 37 37 38 38 39 38 38 38 37 36 36 36
28 30 31 33 35 37 38 39 39 39 39 39 39 39 39 39 38 38 37 36 35 35 35 35 34 34 35 35 35 35 36 36 37 37 37 38 38 37 38 37 36 36 36
32 33 35 36 38 39 40 41 41 41 42 42 41 41 41 41 40 40 39 38 37 36 36 35 35 35 35 35 36 36 36 36 36 36 36 36 36 37 37 37 36 36 36
36 37 39 41 42 43 43 44 44 44 44 45 44 44 43 43 43 42 41 41 40 39 38 37 36 36 36 36 36 36 36 36 36 36 35 35 35 36 36 36 36 37 37
40 41 43 44 45 46 47 48 48 48 48 48 48 47 47 47 46 45 44 44 43 42 41 39 38 37 36 36 37 36 36 36 36 35 35 34 35 35 35 35 36 37 37
42 43 44 45 47 48 49 50 51 51 51 52 52 52 52 52 51 50 48 47 46 45 44 42 40 39 38 37 37 37 36 36 35 34 34 34 33 33 34 34 35 36 36
43 44 45 46 48 50 51 52 53 54 55 56 56 56 56 57 56 54 52 51 49 48 46 44 43 41 39 38 37 37 36 35 34 33 33 33 32 32 32 33 34 35 36
44 46 48 49 51 53 54 56 57 59 60 61 61 61 61 61 60 59 57 55 54 51 49 47 45 43 41 39 38 37 36 34 34 32 32 31 31 31 31 31 32 33 34
48 50 52 54 56 58 60 62 64 65 66 66 66 66 66 66 65 63 61 59 57 55 51 49 47 45 42 40 39 37 35 34 33 32 30 29 29 29 29 29 30 30 31
53 55 57 59 62 64 65 67 69 70 71 72 71 71 70 70 68 66 64 61 59 56 53 51 48 45 43 41 39 37 35 33 32 30 29 28 28 28 29 27 28 29 29
58 60 63 65 67 69 70 72 73 74 74 74 73 73 72 70 68 66 64 61 59 57 54 51 48 46 43 41 39 37 34 32 31 29 27 26 26 26 27 27 28 28 29
64 66 69 71 73 74 75 75 75 75 74 73 72 70 69 67 65 63 61 58 57 55 52 49 47 45 43 40 38 36 34 32 30 28 26 24 24 24 25 26 26 28 28
70 73 75 76 76 75 73 72 69 66 64 63 61 59 58 56 54 53 52 52 51 49 48 46 44 43 41 38 37 35 33 32 29 27 24 23 23 23 24 26 27 28 28
74 74 73 71 68 65 62 58 55 52 50 48 47 46 46 46 45 44 43 43 44 43 43 42 41 40 39 38 37 34 33 31 28 26 24 23 23 23 24 25 25 25 24
71 69 66 61 57 53 49 45 42 41 40 39 38 37 37 37 37 37 38 38 39 40 39 38 38 38 38 37 36 33 31 30 27 25 23 22 22 23 23 24 23 21 21
63 60 56 51 46 42 39 37 37 37 36 35 34 33 32 31 32 31 32 33 34 36 36 37 37 37 37 36 33 31 30 28 26 24 22 22 22 22 22 21 21 20 20
55 50 46 42 38 37 36 36 36 36 35 34 33 32 30 29 28 27 27 28 30 32 33 34 36 37 36 34 32 29 27 25 24 23 23 22 22 21 21 21 21 20 20
47 43 40 37 36 36 36 36 36 35 34 33 32 30 29 28 26 25 24 25 26 28 31 33 35 38 37 34 32 29 27 25 24 23 24 24 23 23 22 22 22 21 20
42 39 38 37 37 37 37 37 37 36 34 31 29 28 27 26 25 24 23 24 24 25 30 33 35 38 35 32 31 30 27 25 24 24 25 24 24 23 23 23 22 21 20
40 39 39 39 39 39 39 39 37 35 33 31 29 28 26 25 24 23 23 22 22 24 27 32 35 36 35 33 32 31 29 27 26 26 26 26 25 24 23 22 22 21 20
Wind_Direction
274 276 278 281 283 286 289 291 292 293 294 294 295 295 294 293 293 294 295 296 296 297 297 296 295 294 292 291 288 287 285 283 281 278 275 272 270 269 268 266 264 264 263
273 275 278 280 282 285 287 289 291 292 292 293 294 293 293 293 293 293 294 294 295 296 297 297 296 294 294 294 291 288 287 286 284 281 278 274 271 270 270 269 267 263 261
273 274 277 280 283 285 286 288 290 290 291 293 294 294 293 293 293 293 293 294 295 295 296 297 297 295 295 294 292 290 287 286 285 284 281 278 276 274 269 266 266 263 261
274 276 279 281 284 285 286 288 289 289 291 293 294 294 294 294 294 293 293 293 294 294 295 296 297 297 296 294 293 292 289 286 283 283 282 279 276 272 269 264 263 259 258
277 279 280 282 283 285 286 287 289 290 291 293 293 293 293 293 293 292 292 291 292 292 294 296 296 297 297 295 294 293 291 288 285 282 280 278 274 272 269 264 261 259 256
280 280 280 281 283 284 285 287 289 290 291 292 292 292 291 291 291 291 290 290 290 291 292 294 295 295 296 296 295 294 293 289 285 282 279 277 274 269 267 264 259 257 255
281 282 282 283 283 284 286 287 288 289 290 290 291 290 290 290 290 290 289 289 289 289 291 293 294 294 294 295 295 295 293 290 286 282 279 275 272 268 264 261 258 255 253
284 283 283 283 284 285 286 287 287 287 288 288 288 288 288 289 289 289 289 288 288 289 290 291 292 293 293 293 294 295 294 291 287 283 279 275 271 267 262 259 258 255 251
285 284 284 284 284 285 286 286 286 286 287 287 287 287 287 288 288 288 288 287 287 288 289 290 291 292 293 293 294 295 295 292 288 284 280 276 271 266 261 257 255 254 252
285 285 285 285 285 285 285 285 285 286 286 286 286 286 286 286 286 287 287 287 287 288 288 289 289 290 291 292 293 294 294 292 288 284 279 275 270 265 260 255 254 253 252
286 285 285 286 286 285 285 284 284 284 284 284 284 285 286 287 286 286 286 286 286 287 288 287 288 289 289 290 291 292 293 291 288 284 279 275 269 264 258 255 254 252 251
287 286 285 285 285 285 284 284 283 283 283 284 283 284 285 286 286 286 285 285 285 285 286 285 286 287 287 288 289 290 291 290 287 283 279 274 268 263 258 254 252 251 251
289 288 287 286 286 285 285 285 285 284 284 284 283 284 285 285 284 284 284 283 283 283 283 282 283 284 284 285 286 287 288 288 285 282 278 272 267 262 258 254 251 249 249
292 291 290 289 289 288 287 287 285 284 283 283 282 282 282 282 282 281 281 281 281 280 280 280 280 281 280 281 282 283 284 284 283 281 277 271 265 261 257 252 249 247 246
294 293 292 291 289 288 287 286 285 283 283 282 281 281 281 280 280 279 279 279 279 278 277 277 277 276 276 277 278 279 281 280 280 278 275 269 263 258 254 249 245 243 242
296 294 292 290 289 288 287 286 285 284 283 283 282 281 280 280 279 278 277 277 276 275 274 274 273 272 272 273 273 274 275 276 276 275 271 266 261 255 249 245 243 240 240
297 295 294 292 291 289 289 288 287 286 285 284 283 282 280 279 278 277 275 274 273 272 271 270 268 267 267 267 266 267 269 271 271 270 267 262 258 249 244 240 237 237 236
298 297 296 294 293 293 292 291 289 288 287 286 285 283 281 279 277 276 274 271 270 268 266 264 263 261 260 260 260 261 263 264 266 266 263 258 254 246 240 235 233 232 231
302 300 299 298 297 296 295 294 293 292 290 289 287 286 283 280 276 273 270 267 265 262 260 259 256 254 253 252 252 253 256 258 258 258 256 251 247 240 234 229 228 227 225
304 303 302 302 301 301 300 299 297 296 294 293 291 288 285 281 275 271 267 262 259 256 254 251 248 247 244 244 245 247 249 252 252 251 248 243 239 232 226 221 217 216 216
307 306 305 306 306 305 304 303 303 301 300 299 297 293 289 284 278 271 265 260 255 251 248 245 241 238 237 237 239 241 242 243 243 243 241 234 229 222 217 213 209 207 206
310 309 309 309 308 307 306 306 306 304 303 301 299 296 291 286 281 273 265 258 253 248 243 239 234 231 229 229 231 232 234 234 235 233 228 223 217 209 204 203 198 196 197
313 312 311 311 309 308 307 307 306 305 304 302 299 295 291 286 282 276 267 258 252 247 237 232 227 223 220 221 220 221 224 224 224 221 216 209 203 199 197 196 191 188 190
315 313 312 311 309 307 307 306 306 305 304 302 298 295 291 285 280 276 268 260 254 245 234 226 218 214 211 211 211 212 211 212 211 208 204 199 194 194 194 192 189 189 188
315 313 312 311 309 307 307 306 305 304 302 301 299 295 292 285 280 275 267 259 252 244 231 220 211 208 206 204 204 202 202 201 199 198 195 192 190 189 189 186 183 182 181
315 313 312 311 309 307 306 305 303 301 300 298 296 294 291 285 278 273 266 256 248 240 226 213 204 201 199 198 195 194 193 192 191 189 186 184 183 181 179 177 176 176 178
Height
5883 5881 5879 5877 5875 5873 5870 5868 5865 5863 5861 5859 5856 5854 5852 5849 5847 5845 5842 5840 5837 5834 5832 5829 5827 5824 5822 5820 5818 5816 5814 5813 5812 5811 5811 5812 5812 5813 5813 5814 5814 5816 5817
5876 5874 5872 5871 5868 5866 5863 5861 5858 5856 5854 5852 5850 5847 5845 5842 5840 5838 5836 5833 5831 5828 5825 5823 5820 5818 5815 5813 5810 5808 5806 5805 5803 5802 5801 5802 5803 5803 5804 5804 5805 5806 5807
5868 5867 5865 5863 5861 5858 5856 5854 5851 5849 5847 5845 5843 5840 5838 5836 5833 5831 5829 5826 5824 5821 5818 5816 5813 5811 5808 5805 5803 5800 5798 5797 5795 5794 5793 5792 5793 5794 5794 5794 5795 5796 5797
5861 5859 5857 5855 5853 5851 5848 5846 5844 5842 5840 5837 5835 5833 5831 5828 5826 5824 5821 5818 5816 5813 5811 5808 5805 5803 5800 5797 5795 5792 5789 5788 5786 5785 5783 5783 5783 5783 5784 5784 5785 5786 5787
5853 5852 5850 5848 5846 5843 5841 5839 5836 5834 5832 5830 5827 5825 5823 5821 5818 5816 5813 5811 5808 5806 5803 5800 5797 5794 5791 5789 5786 5783 5781 5778 5776 5775 5774 5773 5773 5773 5773 5775 5776 5777 5778
5846 5844 5842 5840 5838 5835 5833 5831 5828 5826 5823 5821 5819 5817 5815 5812 5810 5808 5805 5803 5800 5798 5795 5792 5789 5786 5783 5780 5777 5774 5771 5769 5767 5765 5764 5763 5763 5763 5763 5765 5767 5767 5769
5840 5838 5835 5833 5830 5827 5825 5822 5820 5817 5815 5812 5810 5808 5805 5803 5801 5799 5796 5794 5791 5789 5786 5783 5780 5777 5774 5771 5767 5764 5762 5759 5757 5755 5753 5753 5753 5753 5753 5755 5756 5757 5759
5833 5830 5828 5825 5822 5819 5816 5814 5811 5808 5806 5803 5801 5798 5795 5793 5791 5789 5786 5784 5782 5779 5777 5774 5770 5767 5764 5761 5758 5755 5752 5749 5747 5745 5743 5742 5743 5743 5743 5745 5746 5748 5750
5826 5823 5819 5816 5813 5810 5807 5804 5801 5798 5796 5793 5790 5788 5785 5782 5780 5778 5775 5773 5771 5769 5766 5763 5761 5757 5754 5751 5748 5745 5742 5739 5736 5735 5733 5732 5732 5732 5733 5735 5737 5739 5741
5817 5814 5811 5807 5804 5800 5797 5794 5790 5787 5784 5782 5779 5776 5773 5770 5768 5766 5764 5762 5759 5757 5755 5753 5750 5747 5744 5741 5738 5735 5732 5729 5726 5724 5723 5722 5722 5722 5723 5725 5727 5729 5731
5808 5805 5801 5797 5793 5789 5785 5782 5778 5775 5772 5769 5766 5763 5760 5757 5755 5753 5751 5749 5747 5745 5743 5741 5739 5736 5733 5731 5728 5725 5722 5719 5716 5714 5713 5712 5712 5712 5713 5715 5717 5719 5722
5799 5794 5790 5786 5781 5777 5773 5769 5765 5761 5758 5754 5751 5748 5746 5743 5741 5739 5737 5735 5734 5732 5730 5728 5727 5725 5722 5720 5717 5715 5712 5709 5707 5704 5703 5702 5702 5702 5704 5705 5707 5710 5712
5787 5782 5778 5773 5768 5764 5759 5754 5750 5746 5742 5739 5735 5732 5730 5727 5725 5723 5722 5720 5719 5718 5716 5715 5714 5712 5711 5709 5706 5704 5702 5699 5697 5695 5693 5692 5692 5693 5694 5696 5698 5700 5703
5774 5769 5764 5759 5754 5749 5744 5739 5734 5729 5725 5721 5718 5715 5712 5710 5708 5706 5705 5704 5703 5702 5702 5701 5700 5699 5698 5697 5695 5693 5692 5690 5688 5686 5684 5683 5683 5684 5685 5686 5689 5691 5694
5760 5755 5749 5743 5738 5732 5726 5721 5715 5710 5706 5702 5698 5695 5692 5690 5688 5687 5686 5686 5685 5685 5686 5686 5685 5685 5685 5684 5683 5682 5681 5680 5678 5677 5675 5674 5675 5675 5676 5678 5680 5683 5686
5745 5739 5732 5726 5719 5713 5707 5701 5695 5690 5684 5680 5676 5673 5670 5668 5666 5666 5665 5665 5666 5667 5668 5669 5669 5670 5671 5671 5671 5671 5670 5670 5669 5668 5667 5666 5666 5667 5669 5670 5673 5676 5678
5729 5721 5714 5706 5699 5692 5684 5678 5672 5666 5661 5656 5651 5648 5646 5644 5643 5642 5643 5644 5645 5647 5649 5651 5653 5655 5656 5658 5658 5659 5660 5660 5659 5659 5658 5658 5658 5659 5661 5663 5666 5669 5672
5711 5702 5693 5684 5676 5668 5660 5652 5646 5640 5634 5630 5626 5622 5620 5619 5618 5618 5619 5621 5623 5626 5629 5632 5635 5638 5641 5644 5646 5648 5649 5649 5650 5650 5650 5650 5651 5652 5654 5656 5659 5662 5666
5690 5680 5670 5660 5651 5642 5634 5627 5621 5615 5609 5605 5602 5599 5596 5595 5595 5596 5597 5599 5602 5606 5610 5614 5618 5622 5626 5630 5633 5636 5638 5640 5641 5642 5642 5643 5644 5645 5647 5649 5653 5656 5660
5668 5657 5647 5637 5627 5619 5611 5605 5599 5594 5589 5586 5582 5579 5577 5576 5576 5577 5578 5580 5583 5587 5592 5596 5602 5607 5612 5617 5621 5625 5628 5630 5632 5633 5634 5636 5637 5639 5641 5644 5647 5651 5655
5646 5634 5625 5616 5609 5601 5595 5589 5584 5579 5575 5571 5568 5565 5562 5560 5560 5560 5562 5564 5567 5571 5576 5581 5586 5592 5599 5604 5610 5614 5618 5621 5624 5626 5627 5629 5631 5634 5637 5639 5643 5647 5650
5626 5616 5607 5600 5594 5588 5582 5578 5573 5568 5564 5560 5557 5553 5551 5548 5547 5547 5548 5550 5553 5557 5561 5567 5572 5579 5586 5593 5599 5605 5609 5613 5616 5619 5621 5623 5626 5629 5633 5636 5640 5644 5648
5611 5602 5594 5588 5583 5577 5572 5567 5563 5558 5554 5550 5546 5543 5540 5538 5537 5536 5537 5538 5541 5544 5549 5554 5561 5568 5575 5582 5590 5596 5601 5605 5609 5613 5616 5619 5622 5626 5630 5634 5638 5642 5647
5598 5591 5584 5578 5573 5568 5562 5557 5553 5548 5544 5540 5537 5533 5531 5529 5528 5527 5527 5529 5530 5533 5537 5542 5549 5557 5565 5574 5581 5588 5594 5599 5603 5607 5611 5615 5619 5624 5628 5632 5636 5641 5645
5588 5581 5574 5568 5563 5557 5552 5547 5542 5538 5534 5530 5527 5524 5522 5520 5519 5518 5518 5520 5521 5523 5527 5532 5540 5548 5558 5567 5574 5581 5588 5594 5599 5603 5608 5612 5617 5621 5626 5630 5635 5639 5643
5578 5571 5564 5558 5552 5546 5541 5535 5530 5526 5523 5520 5517 5515 5512 5511 5510 5510 5510 5511 5513 5516 5519 5525 5533 5541 5550 5559 5567 5576 5583 5589 5594 5600 5605 5610 5615 5620 5624 5629 5634 5638 5643